Regional Weather Roundup
Issued by NWS Raleigh/Durham, NC

Home | Current Version | Previous Version | Text Only | Print | Product List | Glossary On
Versions: 1 2 3 4 5 6 7 8 9 10 11 12 13 14 15 16 17 18 19 20 21 22 23 24 25 26 27 28 29 30 31 32 33 34 35 36 37 38 39 40 41 42 43 44 45 46 47 48 49 50
000
ASUS42 KRAH 030410
RWRRAH
NORTH CAROLINA WEATHER ROUNDUP
NATIONAL WEATHER SERVICE RALEIGH NC
1200 AM EDT TUE MAY 03 2016

NOTE: "FAIR" INDICATES FEW OR NO CLOUDS BELOW 12,000 FEET WITH NO
SIGNIFICANT WEATHER AND/OR OBSTRUCTIONS TO VISIBILITY.

NCZ001-053-055-056-065-067-030500-
WESTERN NORTH CAROLINA

CITY           SKY/WX    TMP DP  RH WIND       PRES   REMARKS
ASHEVILLE      CLOUDY    61  58  90 CALM      29.94F
JEFFERSON      LGT RAIN  54  53  97 CALM      29.98F
MORGANTON      LGT RAIN  63  63 100 CALM      29.99R
HICKORY        TSTM      62  62 100 CALM      29.92F FOG
RUTHERFORDTON  LGT RAIN  67  61  78 CALM      29.92F
MOUNT AIRY     RAIN      62  60  93 CALM      29.97R
BOONE          RAIN      55  55 100 CALM      29.98F
$$

NCZ021-022-025-041-071-084-088-030500-
CENTRAL NORTH CAROLINA

CITY           SKY/WX    TMP DP  RH WIND       PRES   REMARKS
CHARLOTTE      CLOUDY    69  63  81 S9        29.91F
GREENSBORO     TSTM      62  62 100 N6        29.91F FOG
WINSTON-SALEM  HVY RAIN  61  59  93 VRB3      29.95F FOG
RALEIGH-DURHAM MOCLDY    68  63  84 S12G21    29.90F
FORT BRAGG     CLOUDY    68  66  92 S6        29.91F
FAYETTEVILLE   CLOUDY    68  65  90 S7        29.92F
BURLINGTON     CLOUDY    67  63  87 CALM      29.90F
LAURINBURG     CLOUDY    69  66  90 S9        29.93F
$$

NCZ011-015-027-028-043-044-047-080-103-030500-
NORTHEASTERN NORTH CAROLINA

CITY           SKY/WX    TMP DP  RH WIND       PRES   REMARKS
ROCKY MT-WILSO CLOUDY    67  65  93 S8        29.89F
GREENVILLE     CLOUDY    68  64  88 SW9       29.92F
WASHINGTON     CLOUDY    68  65  89 S7        29.92F
ELIZABETH CITY MOCLDY    71  67  87 S18       29.90F
MANTEO         NOT AVBL
CAPE HATTERAS  CLOUDY    71  69  93 SW10      29.97F
$$

NCZ078-087-090-091-093-098-101-030500-
SOUTHEASTERN NORTH CAROLINA

CITY           SKY/WX    TMP DP  RH WIND       PRES   REMARKS
LUMBERTON      CLOUDY    68  66  93 S6        29.93F
GOLDSBORO      CLOUDY    66  66 100 S6        29.89F
KINSTON        CLOUDY    67  65  95 S9        29.93F
KENANSVILLE    MOCLDY    65  64  97 CALM      29.95F
NEW BERN       CLOUDY    70  67  90 S6        29.97F
CHERRY POINT   MOCLDY    72  68  87 SW9       29.97F
BEAUFORT       MOCLDY    72  69  90 SW15      29.97F
JACKSONVILLE   MOCLDY    70  68  93 S5        29.96F
WILMINGTON     CLOUDY    73  69  87 SW6       29.97F
$$




USA.gov is the U.S. government's official web portal to all federal, state and local government web resources and services.